Weather History for KLHB - April, 2013

Change the Weather History Date:

Monday, April 8, 2013

  Actual Average (KCLL) Record (KCLL)
Temperature  
Mean Temperature 72 °F 67 °F  
Max Temperature 78 °F 77 °F 93 °F (2011)
Min Temperature 65 °F 56 °F 34 °F (1938)
Degree Days  
Heating Degree Days 0 2  
Month to date heating degree days 21  
Since 1 July heating degree days 1580  
Cooling Degree Days 6 4  
Month to date cooling degree days 28  
Year to date cooling degree days 115  
Growing Degree Days 22 (Base 50)    
Moisture  
Dew Point 62 °F    
Average Humidity 75    
Maximum Humidity 92    
Minimum Humidity 56    
Precipitation  
Precipitation 0.00 in 0.08 in 3.50 in (1942)
Month to date precipitation 0.65  
Year to date precipitation 9.91  
Sea Level Pressure  
Sea Level Pressure 29.78 in    
Wind  
Wind Speed 10 mph (SE)    
Max Wind Speed 21 mph    
Max Gust Speed 26 mph    
Visibility 10 miles    
Events      
T = Trace of Precipitation, MM = Missing Value Source: NWS Daily Summary

Daily Weather History Graph

Daily Weather History Graph

Search for Another Location

Airport or City:

Trip Planner

Search our weather history database for the weather conditions in past years. The results will help you decide how hot, cold, wet, or windy it might be!

Date:

Astronomy

Apr. 08, 2013 Rise Set
Actual Time 7:06 AM CDT 7:50 PM CDT
Civil Twilight 6:42 AM CDT 8:14 PM CDT
Nautical Twilight 6:13 AM CDT 8:43 PM CDT
Astronomical Twilight 5:43 AM CDT 9:13 PM CDT
Moon 5:51 AM CDT (4/8) 6:29 PM CDT (4/8)
Length of Visible Light 13h 32m
Length of Day
12h 43m
Waning Crescent, 3% of the Moon is Illuminated
Apr 8
Waning Crescent
Apr 10
New
Apr 18
First Quarter
Apr 25
Full
May 2
Last Quarter

Hourly Weather History & Observations

Time (CDT) Temp. Dew Point Humidity Pressure Visibility Wind Dir Wind Speed Gust Speed Precip Events Conditions
12:15 AM 67.5 °F 59.0 °F 74% 29.87 in 10.0 mi SE 8.1 mph - N/A   Overcast
12:35 AM 67.1 °F 59.4 °F 76% 29.87 in 10.0 mi SE 5.8 mph - N/A   Overcast
12:55 AM 66.4 °F 59.7 °F 79% 29.86 in 10.0 mi SE 6.9 mph - N/A   Overcast
1:15 AM 65.8 °F 59.9 °F 81% 29.86 in 10.0 mi SE 6.9 mph - N/A   Overcast
1:35 AM 65.5 °F 60.1 °F 83% 29.86 in 10.0 mi ESE 6.9 mph - N/A   Overcast
1:55 AM 65.5 °F 60.3 °F 83% 29.86 in 10.0 mi SE 5.8 mph - N/A   Overcast
2:15 AM 65.3 °F 60.8 °F 85% 29.85 in 10.0 mi SE 6.9 mph - N/A   Overcast
2:35 AM 65.5 °F 61.0 °F 85% 29.84 in 10.0 mi SE 6.9 mph - N/A   Overcast
2:55 AM 65.7 °F 61.2 °F 85% 29.83 in 10.0 mi SE 9.2 mph - N/A   Overcast
3:15 AM 65.5 °F 61.3 °F 86% 29.83 in 10.0 mi SE 8.1 mph - N/A   Overcast
3:35 AM 65.7 °F 61.7 °F 87% 29.82 in 10.0 mi SE 8.1 mph - N/A   Overcast
3:55 AM 65.8 °F 61.7 °F 86% 29.81 in 10.0 mi SE 8.1 mph - N/A   Overcast
4:15 AM 65.8 °F 61.9 °F 87% 29.80 in 10.0 mi SE 6.9 mph - N/A   Overcast
4:35 AM 66.0 °F 62.1 °F 87% 29.80 in 10.0 mi SE 8.1 mph - N/A   Overcast
4:55 AM 65.8 °F 62.2 °F 88% 29.80 in 10.0 mi SE 6.9 mph - N/A   Overcast
5:15 AM 65.8 °F 62.2 °F 88% 29.79 in 10.0 mi SE 5.8 mph - N/A   Overcast
5:35 AM 65.8 °F 62.6 °F 89% 29.79 in 10.0 mi SE 8.1 mph - N/A   Overcast
5:55 AM 65.5 °F 62.6 °F 90% 29.79 in 10.0 mi SE 5.8 mph - N/A   Overcast
6:15 AM 65.3 °F 62.6 °F 91% 29.80 in 10.0 mi SE 8.1 mph - N/A   Overcast
6:35 AM 65.3 °F 62.8 °F 92% 29.80 in 10.0 mi SE 6.9 mph - N/A   Mostly Cloudy
6:55 AM 65.5 °F 63.0 °F 92% 29.80 in 10.0 mi SE 6.9 mph - N/A   Overcast
7:15 AM 65.8 °F 63.0 °F 90% 29.80 in 10.0 mi SE 8.1 mph - N/A   Overcast
7:35 AM 65.8 °F 63.0 °F 90% 29.80 in 10.0 mi SE 6.9 mph - N/A   Overcast
7:55 AM 65.8 °F 63.1 °F 91% 29.80 in 10.0 mi SE 5.8 mph - N/A   Overcast
8:15 AM 66.2 °F 63.5 °F 91% 29.80 in 10.0 mi SE 9.2 mph - N/A   Overcast
8:35 AM 67.1 °F 63.5 °F 88% 29.80 in 10.0 mi ESE 8.1 mph - N/A   Overcast
8:55 AM 68.0 °F 63.9 °F 87% 29.80 in 10.0 mi ESE 9.2 mph - N/A   Overcast
9:15 AM 68.2 °F 63.9 °F 86% 29.81 in 10.0 mi SE 10.4 mph - N/A   Overcast
9:35 AM 69.1 °F 64.4 °F 85% 29.81 in 10.0 mi SE 10.4 mph 18.4 mph N/A   Overcast
9:55 AM 70.0 °F 64.4 °F 82% 29.81 in 10.0 mi SSE 15.0 mph - N/A   Overcast
10:15 AM 70.7 °F 64.4 °F 80% 29.81 in 10.0 mi SE 10.4 mph 18.4 mph N/A   Overcast
10:35 AM 73.2 °F 64.6 °F 74% 29.82 in 10.0 mi SSE 13.8 mph 20.7 mph N/A   Overcast
10:55 AM 72.9 °F 63.7 °F 73% 29.83 in 10.0 mi SSE 15.0 mph 21.9 mph N/A   Overcast
11:15 AM 74.1 °F 64.2 °F 71% 29.83 in 10.0 mi SSE 17.3 mph 23.0 mph N/A   Overcast
11:35 AM 73.9 °F 63.1 °F 69% 29.83 in 10.0 mi SSE 16.1 mph 23.0 mph N/A   Overcast
11:55 AM 74.5 °F 63.9 °F 69% 29.82 in 10.0 mi SSE 18.4 mph 26.5 mph N/A   Overcast
12:15 PM 74.8 °F 63.1 °F 67% 29.81 in 10.0 mi SSE 12.7 mph 23.0 mph N/A   Overcast
12:35 PM 74.1 °F 63.3 °F 69% 29.80 in 10.0 mi SE 11.5 mph 20.7 mph N/A   Overcast
12:55 PM 75.2 °F 63.1 °F 66% 29.80 in 10.0 mi SSE 20.7 mph 25.3 mph N/A   Overcast
1:15 PM 74.8 °F 63.0 °F 66% 29.79 in 10.0 mi SE 15.0 mph 18.4 mph N/A   Overcast
1:35 PM 74.7 °F 62.6 °F 66% 29.78 in 10.0 mi SSE 18.4 mph 26.5 mph N/A   Overcast
1:55 PM 74.7 °F 63.0 °F 67% 29.78 in 10.0 mi SSE 15.0 mph 24.2 mph N/A   Overcast
2:15 PM 75.7 °F 64.0 °F 67% 29.77 in 10.0 mi SSE 11.5 mph 17.3 mph N/A   Overcast
2:35 PM 76.5 °F 63.7 °F 64% 29.76 in 10.0 mi SSE 16.1 mph 20.7 mph N/A   Overcast
2:55 PM 77.0 °F 63.7 °F 63% 29.75 in 10.0 mi SSE 15.0 mph 23.0 mph N/A   Overcast
3:15 PM 77.2 °F 63.5 °F 63% 29.74 in 10.0 mi SE 12.7 mph 21.9 mph N/A   Overcast
3:35 PM 77.4 °F 63.5 °F 62% 29.73 in 10.0 mi SSE 12.7 mph 19.6 mph N/A   Overcast
3:55 PM 78.1 °F 63.3 °F 60% 29.73 in 10.0 mi SSE 15.0 mph 19.6 mph N/A   Overcast
4:15 PM 78.3 °F 62.8 °F 59% 29.72 in 10.0 mi SE 13.8 mph 21.9 mph N/A   Overcast
4:35 PM 78.3 °F 62.1 °F 57% 29.72 in 10.0 mi SSE 17.3 mph 26.5 mph N/A   Overcast
4:55 PM 78.4 °F 61.7 °F 56% 29.71 in 10.0 mi SSE 13.8 mph 25.3 mph N/A   Overcast
5:15 PM 78.1 °F 61.7 °F 57% 29.71 in 10.0 mi SSE 15.0 mph 20.7 mph N/A   Overcast
5:35 PM 78.3 °F 61.7 °F 57% 29.71 in 10.0 mi SSE 16.1 mph 20.7 mph N/A   Mostly Cloudy
5:55 PM 77.9 °F 61.7 °F 57% 29.71 in 10.0 mi SSE 13.8 mph 21.9 mph N/A   Overcast
6:15 PM 77.5 °F 61.0 °F 57% 29.72 in 10.0 mi SE 16.1 mph 19.6 mph N/A   Overcast
6:35 PM 77.0 °F 61.2 °F 58% 29.72 in 10.0 mi SSE 15.0 mph 19.6 mph N/A   Mostly Cloudy
6:55 PM 76.5 °F 61.3 °F 59% 29.72 in 10.0 mi SSE 10.4 mph - N/A   Mostly Cloudy
7:15 PM 76.1 °F 59.9 °F 57% 29.72 in 10.0 mi SE 11.5 mph 21.9 mph N/A   Mostly Cloudy
7:35 PM 74.8 °F 59.4 °F 58% 29.72 in 10.0 mi SSE 10.4 mph - N/A   Scattered Clouds
7:55 PM 74.3 °F 59.2 °F 59% 29.73 in 10.0 mi SE 10.4 mph - N/A   Clear
8:15 PM 73.6 °F 60.1 °F 63% 29.73 in 10.0 mi SE 12.7 mph 18.4 mph N/A   Mostly Cloudy
8:35 PM 73.8 °F 61.3 °F 65% 29.73 in 10.0 mi SE 16.1 mph 21.9 mph N/A   Mostly Cloudy
8:55 PM 73.4 °F 62.1 °F 68% 29.73 in 10.0 mi SE 15.0 mph 25.3 mph N/A   Overcast
9:15 PM 72.9 °F 62.6 °F 70% 29.74 in 10.0 mi SE 15.0 mph 25.3 mph N/A   Overcast
9:35 PM 72.5 °F 63.1 °F 72% 29.75 in 10.0 mi SE 15.0 mph 23.0 mph N/A   Overcast
9:55 PM 71.8 °F 63.5 °F 75% 29.74 in 10.0 mi SE 16.1 mph 21.9 mph N/A   Overcast
10:15 PM 71.2 °F 63.7 °F 77% 29.75 in 10.0 mi SE 13.8 mph 21.9 mph N/A   Overcast
10:35 PM 70.7 °F 63.9 °F 79% 29.75 in 10.0 mi SE 11.5 mph 20.7 mph N/A   Scattered Clouds
10:55 PM 70.9 °F 64.0 °F 79% 29.75 in 10.0 mi ESE 12.7 mph 20.7 mph N/A   Mostly Cloudy
11:15 PM 70.7 °F 64.4 °F 80% 29.74 in 10.0 mi SE 10.4 mph 17.3 mph N/A   Overcast
11:35 PM 71.1 °F 64.8 °F 80% 29.75 in 10.0 mi SE 15.0 mph 21.9 mph N/A   Overcast
11:55 PM 70.7 °F 65.3 °F 83% 29.75 in 10.0 mi SE 11.5 mph 21.9 mph N/A   Overcast